Location: Yucca Valley
(34.1140°N, 116.4310°W)
Time: 15:05:11
(UTC-08:00)

Daily predictions for brighter satellites

Satellite Brightness Start Highest point End
(mag) Time Altitude Azimuth Time Altitude Azimuth Time Altitude Azimuth
TSX-5 3.7 16:59:49 10° NNW 17:03:24 81° ENE 17:07:51 10° SSE
Aureole 3 4.1 16:58:57 10° N 17:03:44 77° E 17:09:52 10° S
SMAP 3.2 17:00:09 10° SSE 17:04:40 53° ENE 17:09:11 10° N
CZ-2C R/B 3.5 17:00:37 10° S 17:05:22 51° W 17:10:19 10° NNW
Cosmos 1484 Rocket 2.8 17:04:51 10° SSE 17:08:35 59° ENE 17:12:25 10° N
Ariane Rocket 3.0 17:04:52 10° SSE 17:09:55 71° ENE 17:15:00 10° N
CORIOLIS 4.2 17:10:19 10° SSE 17:15:39 61° ENE 17:21:02 10° N
Cosmos 1606 3.9 17:12:44 10° SE 17:15:43 23° E 17:18:43 10° NE
Meteor 1-28 Rocket 3.1 17:12:16 10° NNE 17:15:58 72° ESE 17:19:39 10° S
AQUARIUS 4.1 17:16:34 10° SSE 17:21:03 81° ENE 17:25:32 10° N
EO 1 Del DPAF 3.9 17:19:12 10° NNE 17:22:44 35° E 17:26:13 10° SSE
Cosmos 1486 Rocket 4.0 17:18:14 10° S 17:23:21 62° ESE 17:28:31 10° NNE
BREEZE-M R/B 4.4 17:21:29 10° N 17:23:25 15° NE 17:24:58 13° ENE
Cosmos 841 Rocket 4.1 17:19:09 10° N 17:23:53 33° ENE 17:28:35 10° SE
Cosmos 1782 3.6 17:20:33 10° SSE 17:24:04 30° E 17:27:36 10° NNE
MTI 4.0 17:22:14 10° NNE 17:25:21 49° E 17:28:29 10° S
Landsat 4 3.6 17:22:26 10° NNE 17:26:14 72° ESE 17:30:00 10° S
SKYMED 2 3.9 17:24:43 10° NNE 17:28:54 46° E 17:33:03 10° S
Cosmos 1908 Rocket 3.9 17:24:56 10° N 17:29:03 41° E 17:33:07 10° SSE
Cosmos 2233 Rocket 4.0 17:24:58 10° S 17:31:16 89° W 17:37:32 10° N
USA 234 3.3 17:24:53 10° NE 17:31:27 84° SE 17:37:59 10° SW
Cosmos 1733 Rocket 3.5 17:27:51 10° NNW 17:32:15 66° W 17:36:39 10° S
Cosmos 972 Rocket 3.9 17:28:07 10° NNW 17:33:01 84° WSW 17:37:58 10° S
SPOT 3 Rocket 4.1 17:29:52 10° SE 17:34:32 34° ENE 17:39:13 10° N
Sich 1 Rocket 3.9 17:32:39 10° N 17:36:51 42° E 17:41:04 10° SSE
Meteor 1-25 Rocket 4.3 17:31:39 10° N 17:37:25 58° E 17:43:06 10° SSE
Cosmos 1354 Rocket 4.4 17:34:04 10° S 17:39:00 42° ESE 17:43:57 10° NNE
Chunghua 1 4.4 17:36:54 10° W 17:40:37 78° N 17:42:52 22° E
GPS 2-05 Rocket1 4.3 17:39:07 10° SSW 17:41:38 22° SSE 17:42:59 17° ESE
Meteor 1-20 Rocket 4.2 17:36:25 10° N 17:41:52 56° E 17:47:13 10° SSE
Cosmos 405 Rocket 3.8 17:41:53 10° SE 17:44:59 23° E 17:45:18 23° E
Cosmos 2082 Rocket 3.1 17:40:40 10° N 17:45:17 25° ENE 17:47:56 18° E
GENESIS II 4.1 17:42:12 10° NNW 17:46:06 68° ENE 17:49:58 10° SE
CZ-4C R/B 4.3 17:42:16 10° N 17:46:23 16° NE 17:47:31 15° NE
Cosmos 972 4.2 17:46:45 10° N 17:51:44 71° ENE 17:56:34 10° SSE
MONITOR-E 4.1 17:49:15 10° SSE 17:52:13 54° ENE 17:55:13 10° N
Meteor 1-27 Rocket 4.4 17:48:44 10° SSE 17:53:52 33° E 17:58:11 14° NNE
ERS-2 2.1 17:53:26 10° SSE 17:57:06 87° WSW 18:00:49 10° NNW
METEOR-M 4.1 17:53:07 10° SSE 17:58:27 86° ENE 18:03:49 10° NNW
CZ-3A R/B 3.9 17:45:53 10° NW 17:59:00 55° NE 18:03:14 19° ESE
ERBS 2.2 17:55:42 10° NNW 17:59:05 64° NE 18:00:20 34° ESE
OAO 3 Copernicus 4.3 17:54:23 10° W 17:59:29 80° N 18:02:00 30° E
Okean 1-7 2.9 17:56:27 10° S 18:00:47 74° E 18:05:10 10° N
Meteor 1-10 Rocket 4.2 17:55:23 10° S 18:00:57 67° E 18:06:38 10° NNE
Cosmos 304 Rocket 4.0 17:59:45 10° NNW 18:04:32 73° WSW 18:09:18 10° S
BREEZE M DEB (TANK) 4.5 18:07:23 10° W 18:08:41 13° SW 18:09:59 10° SSW
Cosmos 1891 Rocket 4.4 18:04:30 10° S 18:10:40 67° E 18:16:43 10° NNE
Thor Agena Rocket 3.8 18:11:18 34° ENE 18:12:45 43° E 18:17:37 10° S
Cosmos 1782 Rocket 3.4 18:08:59 10° N 18:13:20 79° E 18:17:41 10° S
OAO 3 Rocket 4.1 18:09:43 10° SW 18:14:13 36° SSE 18:15:23 32° SE
YAOGAN 1 3.8 18:10:36 10° S 18:14:42 43° W 18:18:50 10° NNW
BREEZE-M DEB (TANK) 2.9 18:10:30 10° WNW 18:16:36 62° SW 18:17:59 31° SSE
CZ-4 R/B 3.8 18:13:27 10° SSW 18:16:39 24° W 18:19:49 10° NW
COSMO-SKYMED 1 3.7 18:12:48 10° N 18:16:56 44° WNW 18:21:03 10° SW
Cosmos 2221 Rocket 3.9 18:19:23 10° SSW 18:23:45 65° W 18:28:08 10° N
Celestis-02/Orion 38 4.4 18:24:31 33° NNE 18:26:53 82° ESE 18:32:05 10° SSW
Cosmos 2034 Rocket 3.9 18:23:48 10° S 18:30:10 84° E 18:36:33 10° N
ALOS 2.5 18:27:10 10° S 18:31:49 69° W 18:36:29 10° NNW
SL-27 R/B 3.3 18:30:07 10° NNW 18:32:48 45° WNW 18:32:48 45° WNW
FENGYUN 3A 3.8 18:28:34 10° S 18:33:58 75° WSW 18:39:23 10° NNW
Nadezhda 4 Rocket 4.0 18:28:58 10° N 18:34:55 52° E 18:40:50 10° SSE
Meteor 1-11 Rocket 3.7 18:29:25 10° N 18:35:11 57° E 18:40:47 10° SSE
Cosmos 2297 4.2 18:33:15 10° SW 18:38:49 57° WNW 18:42:47 20° N
Cosmos 1633 4.3 18:38:25 10° NNW 18:41:43 32° W 18:45:00 10° SSW
Cosmos 1833 Rocket 2.5 18:39:55 10° NNW 18:45:34 84° ENE 18:46:55 54° SSE
Cosmos 2278 Rocket 4.5 18:42:04 10° WSW 18:46:09 20° WNW 18:50:16 10° NNW
Okean 2 Rocket 3.5 18:45:19 10° NNW 18:49:48 62° W 18:54:14 10° S
Cosmos 1441 Rocket 4.3 18:46:07 10° SSW 18:49:07 43° SW 18:49:07 43° SW
Cosmos 968 Rocket 3.7 18:51:44 10° SSW 18:56:00 63° SSW 18:56:00 63° SSW
Cosmos 540 Rocket 4.1 18:58:57 10° NNW 19:03:58 52° WSW 19:06:26 28° SSW
MOS 1-B Rocket 4.4 19:05:59 10° SSE 19:12:49 87° WSW 19:20:58 10° NNW
Cosmos 2082 Rocket 3.4 19:24:13 10° NW 19:29:27 39° WSW 19:29:59 38° WSW
CZ-4C R/B 3.9 19:28:48 10° NNW 19:32:45 35° NNW 19:32:45 35° NNW
